Погода в Быкасово

Россия / Владимирская область     55°57′56″N   42°35′09″E
темп.,
°C
ветер,
м/с
пор.,
м/с
влажн.,
%
обл.,
%
осадки,
мм/ч
давл.,
гПа
погр.,
м
17 мая, пн
пн1700:00+14ю11845 0.0 101511
03:00+13всв118899 0.0 101511
06:00+16всв248171 0.0 1016122
09:00+22в246497 0.0 1016504
12:00+26в445210 0.0 10151059
15:00+28вюв455010 0.0 10151478
18:00+26в366678 0.0 1014240
21:00+19юв368488 0.2 101594
18 мая, вт
вт1800:00+16вюв347884 0.0 101560
03:00+16юв267644 0.0 101599
06:00+18вюв31074100 0.0 1015232
09:00+23вюв485799 0.0 1015465
12:00+27юв594351 0.0 10141206
15:00+28юв510395 0.0 10132497
18:00+25вюв5115711 0.0 1013638
21:00+19вюв414705 0.0 1013313
19 мая, ср
ср1900:00+18вюв515700 0.0 1013289
03:00+17вюв4166892 0.0 1013373
06:00+19вюв4147696 0.0 1013423
09:00+24вюв612580 0.0 1013602
12:00+28вюв610450 0.0 10121302
15:00+28вюв710500 0.0 10121810
18:00+25вюв611624 0.0 1012948
21:00+20вюв514732 0.0 1012500
20 мая, чт
чт2000:00+19вюв516650 0.0 1012505
03:00+17вюв513700 0.0 1011396
06:00+18вюв514760 0.0 1011560
09:00+22юв610620 0.0 10111010
12:00+24юв81255100 0.0 10101822
15:00+21юв6127476 1.7 10091439
18:00+17ююв71288100 3.3 1009913
21:00+14ююв3896100 3.9 1009320
21 мая, пт
пт2100:00+12юв41097100 0.0 1009343
03:00+12ююв41097100 0.0 1009307
06:00+13ю499436 0.0 1009431
09:00+17ююз586561 0.0 1010804
12:00+18ююз61069100 0.3 10101531
15:00+14ююз61190100 1.4 1010872
18:00+15ююз6128392 0.4 10091258
21:00+12ююз4119223 1.4 1010439